EHI
0 0 0 0 0 0 0 0 0 0 0 0 0 0 0 0 0 0 0 0 0 0 1 2 2 3 3 2 1 0 0 1 2 3 3 3 1 0 1 1 1 0 0 0
0 0 0 0 0 0 0 0 0 0 0 0 0 0 0 0 0 0 0 0 0 0 0 1 1 2 3 2 1 1 1 1 1 2 2 2 1 0 0 0 0 0 0 0
0 0 0 0 0 0 0 0 0 0 0 0 0 0 0 0 0 0 0 0 0 0 0 0 0 1 1 2 2 2 2 2 1 1 1 1 1 0 0 0 0 0 0 0
0 0 0 0 0 0 0 0 0 0 0 0 0 0 0 0 0 0 0 0 0 0 0 0 0 0 0 1 1 3 3 2 1 0 0 0 0 0 0 0 0 0 0 0
0 0 0 0 0 0 0 0 0 0 0 0 0 0 0 0 0 0 0 0 0 0 0 0 0 0 0 0 1 2 3 2 1 0 0 0 0 0 0 0 0 0 0 0
0 0 0 0 0 0 0 0 0 0 0 0 0 0 0 0 0 0 0 0 0 0 0 0 0 0 0 0 0 1 2 2 1 0 0 0 0 0 0 0 0 0 0 0
0 0 0 0 0 0 0 0 0 0 0 0 0 0 0 0 0 0 0 0 0 0 0 0 0 0 0 0 0 0 1 1 0 0 0 0 0 0 0 0 0 0 0 0
0 0 0 0 0 0 0 0 0 0 0 0 0 0 0 0 0 0 0 0 0 0 0 0 0 0 0 0 0 0 0 0 0 0 0 0 0 0 0 0 0 0 0 0
0 0 0 0 0 0 0 0 0 0 0 0 0 0 0 0 0 0 0 0 0 0 0 0 0 0 0 0 0 0 0 0 0 0 0 0 0 0 0 0 0 0 0 0
0 0 0 0 0 0 0 0 0 0 0 0 0 0 0 0 0 0 0 0 0 0 0 0 0 0 0 0 0 0 0 0 0 0 0 0 0 0 0 0 0 0 0 0
0 0 0 0 0 0 0 0 0 0 0 0 0 0 0 0 0 0 0 0 0 0 0 0 0 0 0 0 0 0 0 0 0 0 0 0 0 0 0 0 0 0 0 0
0 0 0 0 0 0 0 0 0 0 0 0 0 0 0 0 0 0 0 0 0 0 0 0 0 0 0 0 0 0 0 0 0 0 0 0 0 0 0 0 0 0 0 0
0 0 0 0 0 0 0 0 0 0 0 0 0 0 0 0 0 0 0 0 0 0 0 0 0 0 0 0 0 0 0 0 0 0 0 0 0 0 0 0 0 0 0 0
0 0 0 0 0 0 0 0 0 0 0 0 0 0 0 0 0 0 0 0 0 0 0 0 0 0 0 0 0 0 0 0 0 0 0 0 0 0 0 0 0 0 0 0
0 0 0 0 0 0 0 0 0 0 0 0 0 0 0 0 0 0 0 0 0 0 0 0 0 0 0 0 0 0 0 0 0 0 0 0 0 0 0 0 0 0 0 0
0 0 0 0 0 0 0 0 0 0 0 0 0 0 0 0 0 0 0 0 0 0 0 0 0 0 0 0 0 0 0 0 0 0 0 0 0 0 0 0 0 0 0 0
0 0 0 0 0 0 0 0 0 0 0 0 0 0 0 0 0 0 0 0 0 0 0 0 0 0 0 0 0 0 0 0 0 0 0 0 0 0 0 0 0 0 0 0
0 0 0 0 0 0 0 0 0 0 0 0 0 0 0 0 0 0 0 0 0 0 0 0 0 0 0 0 0 0 0 0 0 0 0 0 0 0 0 0 0 0 0 0
0 0 0 0 0 0 0 0 0 0 0 0 0 0 0 0 0 0 0 0 0 0 0 0 0 0 0 0 0 0 0 0 0 0 0 0 0 0 0 0 0 0 0 0
0 0 0 0 0 0 0 0 0 0 0 0 0 0 0 0 0 0 0 0 0 0 0 0 0 0 0 0 0 0 0 0 0 0 0 0 0 0 0 0 0 0 0 0
0 0 0 0 0 0 0 0 0 0 0 0 0 0 0 0 0 0 0 0 0 0 0 0 0 0 0 0 0 0 0 0 0 0 0 0 0 0 0 0 0 0 0 0
0 0 0 0 0 0 0 0 0 0 0 0 0 0 0 0 0 0 0 0 0 0 0 0 0 0 0 0 0 0 0 0 0 0 0 0 0 0 0 0 0 0 0 0
0 0 0 0 0 0 0 0 0 0 0 0 0 0 0 0 0 0 0 0 0 0 0 0 0 0 0 0 0 0 0 0 0 0 0 0 0 0 0 0 0 0 0 0
0 0 0 0 0 0 0 0 0 0 0 0 0 0 0 0 0 0 0 0 0 0 0 0 0 0 0 0 0 0 0 0 0 0 0 0 0 0 0 0 0 0 0 0
0 0 0 0 0 0 0 0 0 0 0 0 0 0 0 0 0 0 0 0 0 0 0 0 0 0 0 0 0 0 0 0 0 0 0 0 0 0 0 0 0 0 0 0
0 0 0 0 0 0 0 0 0 0 0 0 0 0 0 0 0 0 0 0 0 0 0 0 0 0 0 0 0 0 0 0 0 0 0 0 0 0 0 0 0 0 0 0
Wind_Speed
6 7 9 11 12 7 6 7 9 6 2 6 10 12 10 6 7 7 7 6 7 6 5 5 6 6 6 6 6 7 6 7 6 5 4 4 4 3 3 2 3 3 3 3
7 12 12 8 9 9 8 9 8 4 2 5 8 12 9 8 9 9 8 8 7 6 6 6 6 6 7 7 7 6 7 7 7 5 4 3 4 3 3 2 3 3 3 3
13 4 7 9 9 10 11 11 9 5 2 4 6 8 8 5 6 7 7 7 7 8 8 7 7 7 8 7 7 6 7 7 7 7 5 4 4 3 3 3 3 2 2 3
11 7 7 10 11 10 10 8 8 6 5 4 4 6 5 6 7 7 7 7 7 8 7 7 7 8 8 7 7 7 6 7 7 8 7 8 6 5 4 4 3 3 3 3
8 8 9 11 10 11 4 3 6 6 6 5 5 6 5 5 7 9 8 8 7 7 7 7 7 7 7 7 7 7 7 7 7 8 8 7 6 4 4 4 5 4 3 3
6 5 7 6 5 8 5 5 4 3 5 7 8 8 7 5 7 8 8 7 6 6 6 7 6 6 6 6 7 7 8 8 8 8 8 8 8 7 7 6 5 4 3 2
8 7 5 5 6 8 7 6 4 5 6 7 5 8 8 2 3 5 6 6 5 5 6 6 7 7 7 8 8 7 9 8 8 8 8 8 7 7 7 6 5 5 4 3
10 9 10 8 8 9 11 9 6 6 6 4 5 9 5 0 1 3 4 4 4 5 5 6 7 7 7 8 8 8 9 8 8 7 7 6 6 5 4 5 5 4 3 3
9 7 6 8 5 8 10 9 4 2 1 4 7 6 5 3 3 4 4 4 5 5 5 5 6 6 7 8 8 8 8 8 8 8 7 7 6 5 5 5 4 3 3 3
6 6 5 5 6 4 4 6 6 6 6 7 7 8 6 7 7 6 5 4 4 4 5 5 5 6 6 6 7 7 7 7 7 7 6 5 6 5 5 5 5 4 4 3
5 5 5 6 11 12 8 8 7 6 5 6 6 5 1 5 5 6 5 4 4 4 5 5 5 5 5 6 6 7 6 6 6 6 6 5 5 5 5 4 5 4 4 4
5 4 5 7 3 5 8 10 10 8 7 6 6 3 3 2 3 4 3 3 3 4 4 4 5 5 6 6 6 6 6 6 5 5 5 5 5 5 5 4 4 4 4 4
4 5 4 5 5 5 8 8 10 7 4 7 8 5 3 2 3 3 3 3 3 4 4 5 5 5 5 5 6 6 5 5 5 5 5 5 5 5 5 4 4 4 4 4
4 6 9 11 6 8 9 11 12 9 8 10 13 9 5 5 4 3 3 3 3 4 4 5 4 4 4 4 5 5 5 4 5 5 5 5 5 4 4 4 4 4 4 5
4 7 9 10 8 8 11 13 15 16 14 12 12 13 12 8 6 4 3 3 3 3 4 4 4 4 4 4 4 4 4 4 4 4 4 4 3 3 3 3 3 4 4 5
4 6 5 8 8 9 11 15 18 18 16 15 14 14 7 4 4 4 4 4 4 3 4 4 4 4 4 4 4 4 4 4 4 4 4 3 3 3 3 3 3 4 4 4
5 5 5 7 6 6 13 14 16 14 13 13 15 11 5 6 7 7 6 5 4 4 3 4 4 3 3 3 4 4 4 3 4 4 3 3 3 3 4 4 4 4 4 4
8 7 5 4 6 12 5 3 8 10 10 9 6 5 6 5 4 4 4 4 3 3 3 3 3 3 2 2 3 3 3 4 4 4 3 3 3 4 4 4 5 5 4 5
9 8 5 5 7 8 5 3 5 7 7 6 7 5 3 2 1 3 3 2 2 2 2 2 2 2 2 3 3 3 3 4 4 4 3 3 4 4 4 4 5 5 4 5
4 6 6 5 6 7 2 2 3 5 6 4 6 6 5 5 4 3 2 1 1 0 1 2 2 2 2 2 3 3 3 3 4 3 3 3 4 4 5 5 4 4 4 5
3 5 7 6 6 6 2 2 3 7 3 3 5 6 6 5 2 2 2 1 1 1 2 2 3 2 2 2 3 3 3 3 3 2 3 3 4 4 4 4 4 4 4 5
4 4 5 5 6 5 2 1 3 1 2 3 3 3 3 3 4 3 2 2 2 2 2 2 2 2 1 1 2 2 2 2 2 2 3 3 3 3 3 4 4 4 4 5
3 3 2 2 2 4 2 1 2 1 1 2 2 3 5 5 3 3 2 1 2 2 2 2 2 1 1 0 1 2 2 1 1 2 3 3 3 3 4 4 4 4 4 5
2 2 2 1 1 3 4 3 3 3 3 3 3 4 4 4 3 2 2 1 1 2 1 1 1 1 1 1 1 2 2 1 2 3 3 3 3 4 4 3 4 4 4 5
2 1 1 1 1 3 4 3 4 5 5 5 4 3 3 4 2 2 1 1 1 1 1 1 1 0 1 2 2 2 2 2 3 3 4 4 4 4 4 4 4 5 6 6
2 2 1 1 2 1 2 3 3 4 4 4 4 4 3 3 2 1 1 1 1 1 1 1 1 1 2 2 3 3 2 2 3 3 4 3 3 3 4 4 4 5 7 8
Wind_Direction
187 206 212 211 216 242 235 231 242 243 225 242 246 256 254 245 235 232 227 224 222 222 214 195 189 177 174 175 178 172 166 159 154 149 151 157 152 145 136 133 133 141 144 144
193 223 226 221 212 224 227 234 244 246 221 251 263 262 255 240 233 231 229 223 216 210 200 185 180 177 180 179 178 172 173 168 167 160 156 160 147 144 137 141 138 142 148 150
211 216 206 203 204 215 225 231 236 239 255 237 273 262 230 219 222 229 230 225 217 208 200 186 180 180 181 180 178 175 180 175 170 161 147 140 138 138 147 157 154 153 156 159
227 221 193 204 213 213 229 226 231 229 228 231 240 269 233 208 211 217 218 211 208 205 202 193 183 181 182 182 179 176 179 176 169 166 168 171 170 167 171 164 159 157 162 163
213 201 201 211 215 208 224 189 205 218 227 249 226 249 253 198 220 217 213 209 205 199 197 195 190 184 181 177 175 176 175 177 176 176 176 176 173 165 155 155 158 159 161 164
228 206 217 221 207 198 161 143 147 187 219 241 221 229 256 207 217 210 203 201 200 196 196 196 192 183 178 174 173 174 174 175 176 176 174 176 171 166 162 166 165 163 161 167
210 205 198 186 170 173 185 170 175 194 210 234 185 224 249 232 220 221 206 199 192 187 187 189 188 183 179 176 172 172 168 169 171 172 175 178 176 173 174 171 171 167 166 179
206 210 193 190 194 184 194 200 201 210 219 206 190 230 244 248 229 230 214 191 177 176 178 183 183 180 177 171 171 172 172 172 171 173 177 179 179 177 175 176 175 176 177 182
212 213 171 188 194 189 184 208 237 237 223 233 216 235 254 207 202 189 185 179 180 177 175 176 174 172 170 168 171 173 172 171 173 174 176 177 175 174 177 179 182 180 178 173
230 218 185 176 171 196 217 178 181 199 205 231 230 229 220 190 199 189 186 187 182 175 172 170 164 165 166 164 165 169 172 170 170 172 176 175 174 175 178 182 184 182 181 182
229 206 176 183 199 188 174 184 201 201 231 236 238 223 164 198 190 186 186 189 183 172 169 164 156 156 156 155 159 165 168 167 167 169 172 173 172 175 180 185 188 188 186 191
216 214 211 212 209 236 210 201 193 199 209 229 252 242 95 218 189 180 172 166 164 158 156 154 150 149 152 156 159 164 168 168 168 168 170 172 173 177 184 190 192 190 193 199
196 203 198 192 188 194 214 208 211 218 206 210 226 226 110 160 158 165 160 152 149 150 148 148 148 151 154 155 157 162 164 164 164 164 167 171 177 184 191 193 192 192 199 204
233 225 228 230 223 184 207 210 207 203 214 223 230 236 222 211 202 193 176 164 158 159 157 155 158 159 158 158 158 159 160 161 164 166 171 179 185 189 193 194 197 198 203 207
231 240 244 259 261 222 226 221 212 217 226 231 238 238 237 232 229 217 192 172 167 173 171 167 169 166 163 164 167 169 168 165 167 172 180 187 188 188 192 195 200 204 209 212
237 247 247 253 247 237 243 235 225 226 230 239 248 253 252 237 209 214 209 193 193 198 194 182 179 178 175 175 175 175 175 169 172 179 187 188 190 195 201 204 205 209 216 219
216 218 227 245 241 247 245 232 220 219 222 225 234 239 205 211 209 214 208 201 209 210 209 196 192 191 190 185 179 177 173 167 175 183 187 191 195 204 210 209 212 217 221 225
219 222 232 237 223 231 239 245 224 220 225 226 236 224 208 215 225 226 205 194 205 212 210 199 193 185 182 175 171 166 163 172 182 189 195 199 203 210 213 213 219 224 224 226
220 211 215 218 233 254 259 238 208 212 227 225 221 215 207 166 187 210 187 192 209 226 213 188 184 176 171 169 162 162 171 181 192 200 204 208 212 218 221 225 229 230 229 232
213 215 218 214 227 239 254 279 245 207 227 215 207 201 193 178 211 202 147 152 161 135 136 137 138 148 157 156 160 172 184 193 207 215 220 219 220 224 229 234 238 238 234 236
205 217 222 225 235 258 316 304 190 206 234 180 197 196 198 210 218 139 137 123 103 105 113 117 121 130 141 150 166 181 199 216 225 231 232 233 230 231 234 238 238 236 236 238
214 210 218 222 226 245 10 154 205 298 55 146 162 175 172 134 115 118 113 107 94 101 104 114 115 103 97 141 171 194 224 235 231 235 239 242 244 242 236 234 239 238 237 240
237 246 237 222 252 4 1 326 345 27 83 105 130 130 126 123 126 122 113 102 91 98 100 106 108 87 64 96 194 222 260 264 246 248 253 256 255 248 242 239 239 242 240 241
282 300 239 231 322 4 6 13 39 54 60 66 85 104 117 118 118 107 96 96 90 86 90 94 92 73 16 7 323 290 303 290 257 258 265 263 256 254 250 247 240 239 241 244
289 257 271 281 330 19 17 25 53 64 69 75 75 73 95 103 97 99 99 95 86 73 72 84 84 4 330 338 327 314 306 287 268 266 263 259 255 253 254 254 254 252 251 249
314 275 257 276 317 1 344 13 52 65 60 64 70 61 57 69 78 83 76 59 53 36 31 28 355 334 325 324 317 315 303 276 264 265 264 261 257 258 260 264 271 261 253 260